{"data":{"norad_id":67318,"epoch":"2026-05-24T15:25:55.934400Z","epoch_age_seconds":106217,"freshness":"FRESH","line1":"1 67318U 26002P   26144.64300850  .00021876  00000+0  80212-3 0  9997","line2":"2 67318  43.0031 256.4429 0001733 281.9739  78.0919 15.27579292 22752","mean_motion":15.27579292,"eccentricity":0.0001733,"inclination_deg":43.0031,"raan_deg":256.4429,"arg_perigee_deg":281.9739,"mean_anomaly_deg":78.0919,"bstar":0.00080212,"rev_number":2275,"period_min":94.266792404253,"perigee_km":481.86217212933,"apogee_km":484.24025996501,"semimajor_km":6861.1882160472,"source":"CELESTRAK","updated_at":"2026-05-25T13:38:21.517437Z"}}